Location: ??????
(38.0131°N, 23.7723°E)
Time: 02:25:44
(UTC+00:00)

Cosmos 1174 - Pass Details

Date: 17 October 2021
Orbit: 373 x 1139 km, 66.1° (Epoch: 04 December)

Event Time Altitude Azimuth Distance (km) Brightness Sun altitude
Rises 16:34:05 0° 219° (SW) 2,568 7.9 -10.5°
Reaches altitude 10° 16:36:25 10° 226° (SW) 1,590 6.9 -11.0°
Maximum altitude 16:39:44 45° 300° (WNW) 574 4.4 -11.6°
Drops below altitude 10° 16:42:42 10° 16° (NNE) 1,417 5.7 -12.2°
Enters shadow 16:44:13 - 22° (NNE) 2,054 6.5 -12.5°
